Weather History for KLXV - June, 2013

Change the Weather History Date:

Monday, June 24, 2013

  Actual Average Record
Temperature  
Mean Temperature 51 °F -  
Max Temperature 68 °F 68 °F 79 °F (2007)
Min Temperature 34 °F 34 °F 29 °F (1991)
Degree Days  
Heating Degree Days 14 14  
Month to date heating degree days 328 402  
Since 1 June heating degree days 328 402  
Since 1 July heating degree days 11085 11156  
Cooling Degree Days 0 0  
Month to date cooling degree days 0 0  
Year to date cooling degree days 0 0  
Since 1 June cooling degree days 0 0  
Growing Degree Days 1 (Base 50)    
Moisture  
Dew Point 15 °F    
Average Humidity 32    
Maximum Humidity 56    
Minimum Humidity 8    
Precipitation  
Precipitation 0.00 in 0.04 in 0.27 in (2005)
Month to date precipitation 0.07 0.73  
Year to date precipitation 7.37 4.86  
Sea Level Pressure  
Sea Level Pressure 29.74 in    
Wind  
Wind Speed 7 mph (SW)    
Max Wind Speed 25 mph    
Max Gust Speed 37 mph    
Visibility 10 miles    
Events      
T = Trace of Precipitation, MM = Missing Value Source: NWS Daily Summary

Daily Weather History Graph

Daily Weather History Graph

Search for Another Location

Airport or City:

Trip Planner

Search our weather history database for the weather conditions in past years. The results will help you decide how hot, cold, wet, or windy it might be!

Date:

Astronomy

Jun. 24, 2013 Rise Set
Actual Time 5:39 AM MDT 8:35 PM MDT
Civil Twilight 5:07 AM MDT 9:07 PM MDT
Nautical Twilight 4:26 AM MDT 9:48 PM MDT
Astronomical Twilight 3:39 AM MDT 10:35 PM MDT
Moon 9:41 PM MDT (6/24) 7:10 AM MDT (6/24)
Length of Visible Light 16h 00m
Length of Day
14h 55m
Full, 97% of the Moon is Illuminated
Jun 24
Full
Jun 29
Last Quarter
Jul 8
New
Jul 15
First Quarter
Jul 22
Full

Hourly Weather History & Observations

Time (MDT) Temp. Windchill Dew Point Humidity Pressure Visibility Wind Dir Wind Speed Gust Speed Precip Events Conditions
12:53 AM 44.1 °F - 21.9 °F 42% 29.73 in 7.0 mi Calm Calm - N/A   Clear
1:53 AM 37.9 °F 35.5 °F 21.9 °F 53% 29.74 in 9.0 mi NNE 3.5 mph - N/A   Clear
2:53 AM 41.0 °F - 21.0 °F 45% 29.71 in 10.0 mi Calm Calm - N/A   Clear
3:53 AM 37.0 °F 34.5 °F 21.9 °F 54% 29.75 in 10.0 mi SSE 3.5 mph - N/A   Clear
4:53 AM 36.0 °F - 21.0 °F 55% 29.79 in 10.0 mi Calm Calm - N/A   Clear
5:53 AM 39.0 °F - 19.9 °F 46% 29.81 in 10.0 mi Calm Calm - N/A   Clear
6:53 AM 39.9 °F - 25.0 °F 55% 29.81 in 10.0 mi Calm Calm - N/A   Clear
7:53 AM 46.0 °F - 27.0 °F 47% 29.78 in 10.0 mi Calm Calm - N/A   Clear
8:53 AM 51.1 °F - 30.9 °F 46% 29.79 in 10.0 mi South 5.8 mph - N/A   Clear
9:53 AM 55.0 °F - 28.0 °F 35% 29.76 in 10.0 mi SSW 9.2 mph - N/A   Clear
10:53 AM 60.1 °F - 12.0 °F 15% 29.73 in 10.0 mi Calm Calm - N/A   Clear
11:53 AM 64.0 °F - 1.0 °F 8% 29.71 in 10.0 mi South 15.0 mph 21.9 mph N/A   Clear
12:53 PM 63.0 °F - 5.0 °F 10% 29.72 in 10.0 mi SW 10.4 mph 17.3 mph N/A   Partly Cloudy
1:53 PM 66.9 °F - 7.0 °F 10% 29.71 in 10.0 mi SSW 24.2 mph 34.5 mph N/A   Scattered Clouds
2:53 PM 66.9 °F - 7.0 °F 10% 29.70 in 10.0 mi SW 20.7 mph 31.1 mph N/A   Mostly Cloudy
3:53 PM 66.0 °F - 7.0 °F 10% 29.71 in 10.0 mi WNW 8.1 mph - N/A   Scattered Clouds
4:53 PM 64.9 °F - 7.0 °F 10% 29.74 in 10.0 mi West 9.2 mph - N/A   Partly Cloudy
5:53 PM 63.0 °F - 9.0 °F 12% 29.73 in 10.0 mi SW 12.7 mph 18.4 mph N/A   Clear
6:53 PM 62.1 °F - 9.0 °F 12% 29.74 in 10.0 mi WSW 11.5 mph 25.3 mph N/A   Clear
7:53 PM 60.1 °F - 10.9 °F 14% 29.73 in 10.0 mi WSW 6.9 mph - N/A   Clear
8:53 PM 57.9 °F - 12.0 °F 16% 29.72 in 10.0 mi NW 6.9 mph - N/A   Mostly Cloudy
9:53 PM 55.9 °F - 14.0 °F 19% 29.73 in 10.0 mi Calm Calm - N/A   Clear
10:53 PM 55.0 °F - 15.1 °F 21% 29.71 in 10.0 mi SSW 9.2 mph - N/A   Clear
11:53 PM 48.9 °F - 17.1 °F 28% 29.71 in 10.0 mi North 3.5 mph - N/A   Clear